| time (UTC) | temp C | wind direction | speed KPH | gust KPH | rain 1hr cm | rain 24hr cm | rain mn cm | humidity % | barometer mb |
| 20260906225034 | 32 | 352 | 1.6 | 6.4 | 0.00 | 0.00 | 0.00 | 30 | 1016.1 |
| 20260906224559 | 32 | 313 | 1.6 | 6.4 | 0.00 | 0.00 | 0.00 | 29 | 1016.2 |
| 20260906224034 | 33 | 312 | 1.6 | 8.0 | 0.00 | 0.00 | 0.00 | 29 | 1016.0 |
| 20260906223534 | 32 | 334 | 1.6 | 8.0 | 0.00 | 0.00 | 0.00 | 29 | 1016.1 |
| 20260906223105 | 32 | 28 | 1.6 | 4.8 | 0.00 | 0.00 | 0.00 | 29 | 1016.3 |
| 20260906222538 | 32 | 19 | 0.0 | 4.8 | 0.00 | 0.00 | 0.00 | 30 | 1016.4 |
| 20260906222034 | 32 | 314 | 0.0 | 6.4 | 0.00 | 0.00 | 0.00 | 30 | 1016.5 |
| 20260906221600 | 32 | 121 | 1.6 | 6.4 | 0.00 | 0.00 | 0.00 | 30 | 1016.6 |
| 20260906221034 | 32 | 55 | 1.6 | 6.4 | 0.00 | 0.00 | 0.00 | 29 | 1016.6 |
| 20260906220537 | 32 | 335 | 0.0 | 4.8 | 0.00 | 0.00 | 0.00 | 29 | 1016.7 |
| 20260906220058 | 32 | 324 | 1.6 | 4.8 | 0.00 | 0.00 | 0.00 | 29 | 1016.8 |
| 20260906215534 | 32 | 350 | 1.6 | 6.4 | 0.00 | 0.00 | 0.00 | 29 | 1016.8 |
| 20260906215034 | 32 | 73 | 1.6 | 6.4 | 0.00 | 0.00 | 0.00 | 29 | 1017.0 |
| 20260906214554 | 32 | 19 | 1.6 | 4.8 | 0.00 | 0.00 | 0.00 | 29 | 1016.9 |
| 20260906214037 | 32 | 324 | 1.6 | 6.4 | 0.00 | 0.00 | 0.00 | 29 | 1017.1 |
| 20260906213536 | 31 | 0 | 0.0 | 6.4 | 0.00 | 0.00 | 0.00 | 29 | 1017.1 |
| 20260906213055 | 31 | 0 | 0.0 | 6.4 | 0.00 | 0.00 | 0.00 | 29 | 1017.0 |
| 20260906212535 | 31 | 53 | 0.0 | 6.4 | 0.00 | 0.00 | 0.00 | 29 | 1017.1 |
| 20260906212034 | 31 | 136 | 0.0 | 8.0 | 0.00 | 0.00 | 0.00 | 30 | 1017.3 |
| 20260906211602 | 31 | 78 | 1.6 | 8.0 | 0.00 | 0.00 | 0.00 | 30 | 1017.4 |
| 20260906211034 | 31 | 159 | 3.2 | 6.4 | 0.00 | 0.00 | 0.00 | 30 | 1017.5 |
| 20260906210536 | 31 | 0 | 0.0 | 8.0 | 0.00 | 0.00 | 0.00 | 29 | 1017.6 |
| 20260906205535 | 31 | 65 | 1.6 | 12.9 | 0.00 | 0.00 | 0.00 | 30 | 1017.7 |
| 20260906205037 | 31 | 0 | 1.6 | 9.7 | 0.00 | 0.00 | 0.00 | 31 | 1017.8 |
| 20260906204600 | 31 | 0 | 1.6 | 9.7 | 0.00 | 0.00 | 0.00 | 31 | 1017.9 |
| 20260906204038 | 31 | 89 | 1.6 | 9.7 | 0.00 | 0.00 | 0.00 | 32 | 1018.0 |
| 20260906203537 | 31 | 10 | 1.6 | 9.7 | 0.00 | 0.00 | 0.00 | 32 | 1018.2 |
| 20260906203058 | 31 | 102 | 0.0 | 9.7 | 0.00 | 0.00 | 0.00 | 32 | 1018.3 |
| 20260906202534 | 31 | 85 | 1.6 | 4.8 | 0.00 | 0.00 | 0.00 | 33 | 1018.2 |
| 20260906202034 | 30 | 0 | 0.0 | 4.8 | 0.00 | 0.00 | 0.00 | 32 | 1018.1 |
| 20260906201557 | 31 | 59 | 0.0 | 9.7 | 0.00 | 0.00 | 0.00 | 33 | 1018.2 |
| 20260906201038 | 30 | 0 | 0.0 | 12.9 | 0.00 | 0.00 | 0.00 | 33 | 1018.2 |
| 20260906200534 | 30 | 67 | 1.6 | 12.9 | 0.00 | 0.00 | 0.00 | 32 | 1018.3 |
| 20260906200053 | 30 | 0 | 0.0 | 4.8 | 0.00 | 0.00 | 0.00 | 33 | 1018.4 |
| 20260906195533 | 30 | 0 | 0.0 | 9.7 | 0.00 | 0.00 | 0.00 | 33 | 1018.5 |
| 20260906195040 | 30 | 0 | 1.6 | 9.7 | 0.00 | 0.00 | 0.00 | 33 | 1018.5 |
| 20260906194549 | 29 | 0 | 0.0 | 6.4 | 0.00 | 0.00 | 0.00 | 32 | 1018.6 |
| 20260906194035 | 30 | 0 | 0.0 | 6.4 | 0.00 | 0.00 | 0.00 | 31 | 1018.7 |
| 20260906193537 | 30 | 0 | 1.6 | 11.3 | 0.00 | 0.00 | 0.00 | 35 | 1018.5 |
| 20260906193057 | 30 | 0 | 1.6 | 11.3 | 0.00 | 0.00 | 0.00 | 36 | 1018.7 |
| 20260906192535 | 29 | 0 | 0.0 | 4.8 | 0.00 | 0.00 | 0.00 | 37 | 1018.7 |
| 20260906192034 | 28 | 0 | 0.0 | 11.3 | 0.00 | 0.00 | 0.00 | 38 | 1018.8 |
| 20260906191548 | 29 | 0 | 0.0 | 11.3 | 0.00 | 0.00 | 0.00 | 35 | 1018.9 |
| 20260906191034 | 30 | 0 | 0.0 | 8.0 | 0.00 | 0.00 | 0.00 | 35 | 1019.1 |
| 20260906190534 | 29 | 0 | 0.0 | 8.0 | 0.00 | 0.00 | 0.00 | 36 | 1018.9 |
| 20260906190050 | 28 | 27 | 1.6 | 6.4 | 0.00 | 0.00 | 0.00 | 35 | 1019.1 |
| 20260906185537 | 28 | 124 | 0.0 | 1.6 | 0.00 | 0.00 | 0.00 | 36 | 1019.2 |
| 20260906185034 | 28 | 0 | 0.0 | 1.6 | 0.00 | 0.00 | 0.00 | 35 | 1019.2 |
| 20260906184548 | 28 | 0 | 0.0 | 4.8 | 0.00 | 0.00 | 0.00 | 36 | 1019.4 |
| 20260906184034 | 28 | 0 | 0.0 | 8.0 | 0.00 | 0.00 | 0.00 | 37 | 1019.4 |
| 20260906183534 | 28 | 0 | 1.6 | 8.0 | 0.00 | 0.00 | 0.00 | 37 | 1019.5 |
| 20260906183044 | 28 | 0 | 0.0 | 1.6 | 0.00 | 0.00 | 0.00 | 37 | 1019.5 |
| 20260906182536 | 28 | 0 | 0.0 | 1.6 | 0.00 | 0.00 | 0.00 | 38 | 1019.8 |
| 20260906182034 | 28 | 0 | 0.0 | 1.6 | 0.00 | 0.00 | 0.00 | 38 | 1019.9 |
| 20260906181557 | 27 | 0 | 0.0 | 1.6 | 0.00 | 0.00 | 0.00 | 36 | 1020.0 |
| 20260906181035 | 27 | 0 | 0.0 | 1.6 | 0.00 | 0.00 | 0.00 | 36 | 1020.2 |
| 20260906180535 | 27 | 0 | 0.0 | 3.2 | 0.00 | 0.00 | 0.00 | 38 | 1020.2 |
| 20260906180105 | 27 | 0 | 0.0 | 12.9 | 0.00 | 0.00 | 0.00 | 37 | 1020.2 |
| 20260906175537 | 27 | 75 | 1.6 | 12.9 | 0.00 | 0.00 | 0.00 | 37 | 1020.3 |
| 20260906175037 | 27 | 0 | 0.0 | 3.2 | 0.00 | 0.00 | 0.00 | 41 | 1020.4 |
| 20260906174547 | 27 | 0 | 0.0 | 0.0 | 0.00 | 0.00 | 0.00 | 38 | 1020.5 |
| 20260906174035 | 27 | 0 | 0.0 | 0.0 | 0.00 | 0.00 | 0.00 | 38 | 1020.6 |
| 20260906173535 | 27 | 0 | 0.0 | 0.0 | 0.00 | 0.00 | 0.00 | 39 | 1020.7 |
| 20260906173054 | 26 | 0 | 0.0 | 0.0 | 0.00 | 0.00 | 0.00 | 40 | 1020.8 |
| 20260906172536 | 26 | 0 | 0.0 | 1.6 | 0.00 | 0.00 | 0.00 | 43 | 1020.9 |
| 20260906172034 | 26 | 0 | 0.0 | 1.6 | 0.00 | 0.00 | 0.00 | 42 | 1021.0 |
| 20260906171559 | 26 | 0 | 0.0 | 1.6 | 0.00 | 0.00 | 0.00 | 40 | 1021.0 |
| 20260906171033 | 25 | 0 | 0.0 | 1.6 | 0.00 | 0.00 | 0.00 | 42 | 1021.2 |
| 20260906170535 | 25 | 0 | 0.0 | 1.6 | 0.00 | 0.00 | 0.00 | 42 | 1021.3 |
| 20260906170103 | 25 | 0 | 0.0 | 1.6 | 0.00 | 0.00 | 0.00 | 43 | 1021.3 |
| 20260906165619 | 25 | 0 | 0.0 | 4.8 | 0.00 | 0.00 | 0.00 | 45 | 1021.4 |
| 20260906165034 | 25 | 70 | 0.0 | 4.8 | 0.00 | 0.00 | 0.00 | 46 | 1021.3 |
| 20260906164546 | 25 | 0 | 0.0 | 4.8 | 0.00 | 0.00 | 0.00 | 47 | 1021.3 |
| 20260906164034 | 25 | 0 | 0.0 | 0.0 | 0.00 | 0.00 | 0.00 | 48 | 1021.4 |
| 20260906163534 | 24 | 0 | 0.0 | 0.0 | 0.00 | 0.00 | 0.00 | 49 | 1021.3 |
| 20260906163109 | 24 | 0 | 0.0 | 0.0 | 0.00 | 0.00 | 0.00 | 50 | 1021.3 |
| 20260906162537 | 23 | 0 | 0.0 | 1.6 | 0.00 | 0.00 | 0.00 | 50 | 1021.4 |
| 20260906162033 | 23 | 0 | 0.0 | 1.6 | 0.00 | 0.00 | 0.00 | 52 | 1021.2 |
| 20260906161550 | 23 | 0 | 0.0 | 1.6 | 0.00 | 0.00 | 0.00 | 52 | 1021.3 |
| 20260906161037 | 23 | 0 | 0.0 | 0.0 | 0.00 | 0.00 | 0.00 | 52 | 1021.3 |
| 20260906160537 | 23 | 0 | 0.0 | 0.0 | 0.00 | 0.00 | 0.00 | 52 | 1021.4 |
| 20260906160053 | 23 | 0 | 0.0 | 3.2 | 0.00 | 0.00 | 0.00 | 53 | 1021.3 |
| 20260906155536 | 23 | 0 | 0.0 | 3.2 | 0.00 | 0.00 | 0.00 | 54 | 1021.3 |
| 20260906155036 | 23 | 0 | 0.0 | 4.8 | 0.00 | 0.00 | 0.00 | 53 | 1021.3 |
| 20260906154559 | 23 | 0 | 0.0 | 4.8 | 0.00 | 0.00 | 0.00 | 54 | 1021.4 |
| 20260906154034 | 22 | 0 | 0.0 | 0.0 | 0.00 | 0.00 | 0.00 | 56 | 1021.5 |
| 20260906153538 | 22 | 0 | 0.0 | 0.0 | 0.00 | 0.00 | 0.00 | 57 | 1021.5 |
| 20260906153052 | 22 | 0 | 0.0 | 0.0 | 0.00 | 0.00 | 0.00 | 58 | 1021.5 |
| 20260906152535 | 22 | 0 | 0.0 | 0.0 | 0.00 | 0.00 | 0.00 | 57 | 1021.5 |
| 20260906152036 | 22 | 0 | 0.0 | 4.8 | 0.00 | 0.00 | 0.00 | 59 | 1021.5 |
| 20260906151549 | 21 | 0 | 0.0 | 4.8 | 0.00 | 0.00 | 0.00 | 62 | 1021.6 |
| 20260906151036 | 21 | 0 | 0.0 | 3.2 | 0.00 | 0.00 | 0.00 | 64 | 1021.7 |
| 20260906150535 | 21 | 0 | 0.0 | 4.8 | 0.00 | 0.00 | 0.00 | 65 | 1021.7 |
| 20260906150109 | 21 | 0 | 0.0 | 4.8 | 0.00 | 0.00 | 0.00 | 66 | 1021.7 |
| 20260906145534 | 20 | 0 | 0.0 | 3.2 | 0.00 | 0.00 | 0.00 | 67 | 1021.7 |
| 20260906145036 | 20 | 0 | 0.0 | 6.4 | 0.00 | 0.00 | 0.00 | 68 | 1021.7 |
| 20260906144551 | 20 | 0 | 0.0 | 6.4 | 0.00 | 0.00 | 0.00 | 67 | 1021.5 |
| 20260906144035 | 20 | 333 | 0.0 | 3.2 | 0.00 | 0.00 | 0.00 | 68 | 1021.5 |
| 20260906143534 | 20 | 0 | 0.0 | 1.6 | 0.00 | 0.00 | 0.00 | 67 | 1021.5 |
| 20260906143052 | 20 | 0 | 0.0 | 1.6 | 0.00 | 0.00 | 0.00 | 68 | 1021.7 |
| 20260906142538 | 20 | 0 | 0.0 | 0.0 | 0.00 | 0.00 | 0.00 | 69 | 1021.5 |
| 20260906142039 | 20 | 0 | 0.0 | 0.0 | 0.00 | 0.00 | 0.00 | 69 | 1021.7 |
| 20260906141549 | 20 | 0 | 0.0 | 0.0 | 0.00 | 0.00 | 0.00 | 70 | 1021.7 |
| 20260906141035 | 19 | 0 | 0.0 | 1.6 | 0.00 | 0.00 | 0.00 | 71 | 1021.7 |
| 20260906140536 | 18 | 0 | 0.0 | 1.6 | 0.00 | 0.00 | 0.00 | 73 | 1021.7 |
| 20260906140059 | 18 | 348 | 0.0 | 6.4 | 0.00 | 0.00 | 0.00 | 74 | 1021.5 |
| 20260906135536 | 18 | 0 | 0.0 | 6.4 | 0.00 | 0.00 | 0.00 | 74 | 1021.4 |
| 20260906135036 | 18 | 0 | 0.0 | 3.2 | 0.00 | 0.00 | 0.00 | 74 | 1021.3 |
| 20260906134551 | 17 | 0 | 0.0 | 8.0 | 0.00 | 0.00 | 0.00 | 74 | 1021.4 |
| 20260906134039 | 17 | 0 | 0.0 | 8.0 | 0.00 | 0.00 | 0.00 | 75 | 1021.3 |
| 20260906133540 | 17 | 0 | 0.0 | 0.0 | 0.00 | 0.00 | 0.00 | 77 | 1021.3 |
| 20260906133111 | 16 | 0 | 0.0 | 0.0 | 0.00 | 0.00 | 0.00 | 77 | 1021.3 |
| 20260906132541 | 16 | 0 | 0.0 | 0.0 | 0.00 | 0.00 | 0.00 | 78 | 1021.3 |
| 20260906132037 | 16 | 0 | 0.0 | 0.0 | 0.00 | 0.00 | 0.00 | 79 | 1021.1 |
| 20260906131547 | 16 | 0 | 0.0 | 0.0 | 0.00 | 0.00 | 0.00 | 79 | 1021.3 |
| 20260906131038 | 16 | 0 | 0.0 | 0.0 | 0.00 | 0.00 | 0.00 | 78 | 1021.1 |
| 20260906130536 | 15 | 0 | 0.0 | 0.0 | 0.00 | 0.00 | 0.00 | 78 | 1021.1 |
| 20260906130107 | 15 | 0 | 0.0 | 0.0 | 0.00 | 0.00 | 0.00 | 77 | 1021.2 |
| 20260906125536 | 15 | 0 | 0.0 | 1.6 | 0.00 | 0.00 | 0.00 | 77 | 1021.2 |
| 20260906125035 | 15 | 0 | 0.0 | 3.2 | 0.00 | 0.00 | 0.00 | 78 | 1021.2 |
| 20260906124550 | 15 | 0 | 0.0 | 3.2 | 0.00 | 0.00 | 0.00 | 77 | 1021.1 |
| 20260906124036 | 15 | 0 | 0.0 | 1.6 | 0.00 | 0.00 | 0.00 | 77 | 1021.0 |
| 20260906123536 | 15 | 0 | 0.0 | 1.6 | 0.00 | 0.00 | 0.00 | 76 | 1021.1 |
| 20260906123049 | 15 | 0 | 0.0 | 0.0 | 0.00 | 0.00 | 0.00 | 75 | 1020.9 |
| 20260906122536 | 15 | 0 | 0.0 | 0.0 | 0.00 | 0.00 | 0.00 | 75 | 1020.9 |
| 20260906122034 | 15 | 0 | 0.0 | 0.0 | 0.00 | 0.00 | 0.00 | 75 | 1020.9 |
| 20260906121556 | 15 | 0 | 0.0 | 0.0 | 0.00 | 0.00 | 0.00 | 74 | 1021.1 |
| 20260906121034 | 15 | 0 | 0.0 | 0.0 | 0.00 | 0.00 | 0.00 | 74 | 1021.0 |
| 20260906120534 | 16 | 0 | 0.0 | 0.0 | 0.00 | 0.00 | 0.00 | 73 | 1020.9 |
| 20260906120053 | 16 | 0 | 0.0 | 0.0 | 0.00 | 0.00 | 0.00 | 72 | 1021.1 |
| 20260906115534 | 16 | 0 | 0.0 | 0.0 | 0.00 | 0.00 | 0.00 | 72 | 1021.2 |
| 20260906115034 | 16 | 0 | 0.0 | 0.0 | 0.00 | 0.00 | 0.00 | 73 | 1021.3 |
| 20260906114553 | 16 | 0 | 0.0 | 0.0 | 0.00 | 0.00 | 0.00 | 72 | 1021.2 |
| 20260906114035 | 16 | 0 | 0.0 | 0.0 | 0.00 | 0.00 | 0.00 | 72 | 1021.1 |
| 20260906113534 | 16 | 0 | 0.0 | 0.0 | 0.00 | 0.00 | 0.00 | 72 | 1021.0 |
| 20260906113050 | 16 | 0 | 0.0 | 0.0 | 0.00 | 0.00 | 0.00 | 73 | 1020.9 |
| 20260906112534 | 16 | 0 | 0.0 | 0.0 | 0.00 | 0.00 | 0.00 | 74 | 1020.9 |
| 20260906112034 | 16 | 0 | 0.0 | 4.8 | 0.00 | 0.00 | 0.00 | 74 | 1021.0 |
| 20260906111611 | 16 | 0 | 0.0 | 4.8 | 0.00 | 0.00 | 0.00 | 75 | 1020.8 |
| 20260906111034 | 16 | 0 | 0.0 | 3.2 | 0.00 | 0.00 | 0.00 | 75 | 1020.7 |
| 20260906110534 | 16 | 0 | 0.0 | 3.2 | 0.00 | 0.00 | 0.00 | 75 | 1020.8 |
| 20260906110049 | 16 | 0 | 0.0 | 3.2 | 0.00 | 0.00 | 0.00 | 74 | 1020.8 |
| 20260906105534 | 17 | 0 | 0.0 | 4.8 | 0.00 | 0.00 | 0.00 | 75 | 1020.7 |
| 20260906105039 | 17 | 0 | 0.0 | 4.8 | 0.00 | 0.00 | 0.00 | 76 | 1020.7 |
| 20260906104546 | 17 | 0 | 0.0 | 1.6 | 0.00 | 0.00 | 0.00 | 76 | 1020.7 |
| 20260906104038 | 17 | 0 | 0.0 | 1.6 | 0.00 | 0.00 | 0.00 | 76 | 1020.8 |
| 20260906103537 | 17 | 0 | 0.0 | 1.6 | 0.00 | 0.00 | 0.00 | 75 | 1020.9 |
| 20260906103057 | 17 | 0 | 0.0 | 3.2 | 0.00 | 0.00 | 0.00 | 75 | 1020.8 |
| 20260906102538 | 17 | 345 | 0.0 | 4.8 | 0.00 | 0.00 | 0.00 | 74 | 1020.9 |
| 20260906102037 | 17 | 0 | 0.0 | 4.8 | 0.00 | 0.00 | 0.00 | 74 | 1020.8 |
| 20260906101549 | 17 | 0 | 0.0 | 3.2 | 0.00 | 0.00 | 0.00 | 73 | 1020.9 |
| 20260906101041 | 17 | 338 | 0.0 | 3.2 | 0.00 | 0.00 | 0.00 | 73 | 1020.7 |
| 20260906100536 | 17 | 0 | 0.0 | 4.8 | 0.00 | 0.00 | 0.00 | 70 | 1020.6 |
| 20260906100053 | 17 | 0 | 0.0 | 4.8 | 0.00 | 0.00 | 0.00 | 67 | 1020.7 |
| 20260906095545 | 17 | 0 | 0.0 | 0.0 | 0.00 | 0.00 | 0.00 | 67 | 1020.4 |
| 20260906095038 | 17 | 0 | 0.0 | 0.0 | 0.00 | 0.00 | 0.00 | 67 | 1020.7 |
| 20260906094556 | 17 | 0 | 0.0 | 0.0 | 0.00 | 0.00 | 0.00 | 65 | 1020.7 |
| 20260906094039 | 17 | 0 | 0.0 | 0.0 | 0.00 | 0.00 | 0.00 | 64 | 1020.8 |
| 20260906093538 | 17 | 0 | 0.0 | 0.0 | 0.00 | 0.00 | 0.00 | 60 | 1020.6 |
| 20260906093053 | 18 | 0 | 0.0 | 0.0 | 0.00 | 0.00 | 0.00 | 59 | 1020.5 |
| 20260906092538 | 18 | 0 | 0.0 | 0.0 | 0.00 | 0.00 | 0.00 | 54 | 1020.6 |
| 20260906092036 | 18 | 0 | 0.0 | 0.0 | 0.00 | 0.00 | 0.00 | 52 | 1020.6 |
| 20260906091550 | 18 | 0 | 0.0 | 0.0 | 0.00 | 0.00 | 0.00 | 53 | 1020.4 |
| 20260906091038 | 19 | 0 | 0.0 | 0.0 | 0.00 | 0.00 | 0.00 | 55 | 1020.4 |
| 20260906090538 | 19 | 0 | 0.0 | 0.0 | 0.00 | 0.00 | 0.00 | 53 | 1020.4 |
| 20260906090055 | 19 | 0 | 0.0 | 0.0 | 0.00 | 0.00 | 0.00 | 52 | 1020.4 |
| 20260906085538 | 19 | 0 | 0.0 | 0.0 | 0.00 | 0.00 | 0.00 | 51 | 1020.4 |
| 20260906085036 | 20 | 0 | 0.0 | 0.0 | 0.00 | 0.00 | 0.00 | 50 | 1020.4 |
| 20260906084546 | 20 | 0 | 0.0 | 0.0 | 0.00 | 0.00 | 0.00 | 48 | 1020.4 |
| 20260906084039 | 20 | 0 | 0.0 | 4.8 | 0.00 | 0.00 | 0.00 | 47 | 1020.3 |
| 20260906083536 | 20 | 0 | 0.0 | 4.8 | 0.00 | 0.00 | 0.00 | 47 | 1020.2 |
| 20260906083054 | 20 | 0 | 0.0 | 3.2 | 0.00 | 0.00 | 0.00 | 47 | 1020.0 |
| 20260906082535 | 20 | 0 | 0.0 | 4.8 | 0.00 | 0.00 | 0.00 | 46 | 1020.0 |
| 20260906082038 | 20 | 0 | 0.0 | 4.8 | 0.00 | 0.00 | 0.00 | 46 | 1019.9 |
| 20260906081550 | 20 | 0 | 0.0 | 4.8 | 0.00 | 0.00 | 0.00 | 47 | 1019.6 |
| 20260906081035 | 20 | 0 | 0.0 | 4.8 | 0.00 | 0.00 | 0.00 | 47 | 1019.6 |
| 20260906080538 | 20 | 0 | 0.0 | 3.2 | 0.00 | 0.00 | 0.00 | 47 | 1019.6 |
| 20260906080049 | 20 | 0 | 0.0 | 1.6 | 0.00 | 0.00 | 0.00 | 50 | 1019.6 |
| 20260906075535 | 20 | 0 | 0.0 | 3.2 | 0.00 | 0.00 | 0.00 | 50 | 1019.7 |
| 20260906075035 | 20 | 0 | 0.0 | 3.2 | 0.00 | 0.00 | 0.00 | 47 | 1019.6 |
| 20260906074548 | 20 | 309 | 0.0 | 1.6 | 0.00 | 0.00 | 0.00 | 48 | 1019.6 |
| 20260906074040 | 20 | 0 | 0.0 | 1.6 | 0.00 | 0.00 | 0.00 | 52 | 1019.7 |
| 20260906073536 | 20 | 0 | 0.0 | 4.8 | 0.00 | 0.00 | 0.00 | 51 | 1019.8 |
| 20260906073055 | 20 | 0 | 0.0 | 4.8 | 0.00 | 0.00 | 0.00 | 51 | 1019.8 |
| 20260906072537 | 20 | 0 | 0.0 | 0.0 | 0.00 | 0.00 | 0.00 | 53 | 1019.7 |
| 20260906072039 | 20 | 0 | 0.0 | 0.0 | 0.00 | 0.00 | 0.00 | 52 | 1019.8 |
| 20260906071554 | 20 | 0 | 0.0 | 0.0 | 0.00 | 0.00 | 0.00 | 50 | 1019.7 |
| 20260906071036 | 21 | 0 | 0.0 | 1.6 | 0.00 | 0.00 | 0.00 | 49 | 1019.8 |
| 20260906070538 | 21 | 0 | 0.0 | 1.6 | 0.00 | 0.00 | 0.00 | 42 | 1019.7 |
| 20260906070059 | 22 | 0 | 0.0 | 0.0 | 0.00 | 0.00 | 0.00 | 44 | 1019.8 |
| 20260906065538 | 23 | 0 | 0.0 | 1.6 | 0.00 | 0.00 | 0.00 | 40 | 1019.7 |
| 20260906065039 | 22 | 0 | 0.0 | 1.6 | 0.00 | 0.00 | 0.00 | 40 | 1019.7 |
| 20260906064553 | 22 | 0 | 0.0 | 0.0 | 0.00 | 0.00 | 0.00 | 41 | 1019.8 |
| 20260906064038 | 22 | 0 | 0.0 | 4.8 | 0.00 | 0.00 | 0.00 | 43 | 1020.0 |
| 20260906063536 | 21 | 0 | 0.0 | 4.8 | 0.00 | 0.00 | 0.00 | 46 | 1019.9 |
| 20260906063053 | 22 | 0 | 0.0 | 4.8 | 0.00 | 0.00 | 0.00 | 45 | 1019.9 |
| 20260906062538 | 22 | 296 | 0.0 | 4.8 | 0.00 | 0.00 | 0.00 | 44 | 1020.1 |
| 20260906062035 | 22 | 0 | 0.0 | 4.8 | 0.00 | 0.00 | 0.00 | 46 | 1020.1 |
| 20260906061549 | 23 | 0 | 0.0 | 0.0 | 0.00 | 0.00 | 0.00 | 42 | 1020.0 |
| 20260906061041 | 22 | 0 | 0.0 | 4.8 | 0.00 | 0.00 | 0.00 | 42 | 1020.0 |
| 20260906060538 | 22 | 0 | 0.0 | 4.8 | 0.00 | 0.00 | 0.00 | 43 | 1020.1 |
| 20260906060047 | 22 | 0 | 0.0 | 3.2 | 0.00 | 0.00 | 0.00 | 48 | 1020.2 |
| 20260906055538 | 22 | 0 | 0.0 | 1.6 | 0.00 | 0.00 | 0.00 | 50 | 1020.1 |
| 20260906055038 | 22 | 0 | 0.0 | 0.0 | 0.00 | 0.00 | 0.00 | 44 | 1019.7 |
| 20260906054603 | 22 | 0 | 0.0 | 3.2 | 0.00 | 0.00 | 0.00 | 44 | 1019.6 |
| 20260906054038 | 23 | 0 | 0.0 | 6.4 | 0.00 | 0.00 | 0.00 | 44 | 1019.6 |
| 20260906053538 | 23 | 0 | 0.0 | 6.4 | 0.00 | 0.00 | 0.00 | 46 | 1019.6 |
| 20260906053056 | 23 | 306 | 0.0 | 0.0 | 0.00 | 0.00 | 0.00 | 43 | 1020.1 |
| 20260906052537 | 23 | 0 | 0.0 | 1.6 | 0.00 | 0.00 | 0.00 | 43 | 1020.6 |
| 20260906052038 | 23 | 0 | 0.0 | 1.6 | 0.00 | 0.00 | 0.00 | 39 | 1020.8 |
| 20260906051609 | 23 | 0 | 0.0 | 3.2 | 0.00 | 0.00 | 0.00 | 41 | 1021.0 |
| 20260906051038 | 23 | 0 | 0.0 | 3.2 | 0.00 | 0.00 | 0.00 | 45 | 1021.1 |
| 20260906050541 | 23 | 0 | 0.0 | 1.6 | 0.00 | 0.00 | 0.00 | 43 | 1021.1 |
| 20260906050053 | 23 | 0 | 0.0 | 4.8 | 0.00 | 0.00 | 0.00 | 42 | 1021.1 |
| 20260906045538 | 22 | 0 | 0.0 | 6.4 | 0.00 | 0.00 | 0.00 | 45 | 1021.0 |
| 20260906045041 | 23 | 161 | 0.0 | 6.4 | 0.00 | 0.00 | 0.00 | 38 | 1021.0 |
| 20260906044553 | 23 | 0 | 0.0 | 1.6 | 0.00 | 0.00 | 0.00 | 37 | 1020.8 |
| 20260906044035 | 23 | 0 | 0.0 | 0.0 | 0.00 | 0.00 | 0.00 | 36 | 1020.6 |
| 20260906043534 | 23 | 0 | 0.0 | 0.0 | 0.00 | 0.00 | 0.00 | 36 | 1020.2 |
| 20260906043047 | 23 | 0 | 0.0 | 1.6 | 0.00 | 0.00 | 0.00 | 37 | 1020.1 |
| 20260906042534 | 23 | 0 | 0.0 | 1.6 | 0.00 | 0.00 | 0.00 | 36 | 1020.1 |
| 20260906042036 | 23 | 0 | 0.0 | 0.0 | 0.00 | 0.00 | 0.00 | 35 | 1019.8 |
| 20260906041552 | 24 | 0 | 0.0 | 1.6 | 0.00 | 0.00 | 0.00 | 35 | 1019.9 |
| 20260906041034 | 23 | 0 | 0.0 | 3.2 | 0.00 | 0.00 | 0.00 | 35 | 1019.9 |
| 20260906040533 | 23 | 0 | 0.0 | 3.2 | 0.00 | 0.00 | 0.00 | 36 | 1019.8 |
| 20260906040128 | 23 | 0 | 0.0 | 3.2 | 0.00 | 0.00 | 0.00 | 36 | 1019.9 |
| 20260906035533 | 24 | 0 | 0.0 | 0.0 | 0.00 | 0.00 | 0.00 | 35 | 1019.8 |
| 20260906035035 | 24 | 0 | 0.0 | 1.6 | 0.00 | 0.00 | 0.00 | 35 | 1019.5 |
| 20260906034600 | 24 | 0 | 0.0 | 1.6 | 0.00 | 0.00 | 0.00 | 34 | 1019.4 |
| 20260906034034 | 24 | 0 | 0.0 | 0.0 | 0.00 | 0.00 | 0.00 | 34 | 1019.4 |
| 20260906033534 | 24 | 0 | 0.0 | 0.0 | 0.00 | 0.00 | 0.00 | 35 | 1019.4 |
| 20260906033106 | 24 | 0 | 0.0 | 1.6 | 0.00 | 0.00 | 0.00 | 35 | 1019.4 |
| 20260906032537 | 23 | 0 | 0.0 | 1.6 | 0.00 | 0.00 | 0.00 | 35 | 1019.5 |
| 20260906032034 | 23 | 0 | 0.0 | 0.0 | 0.00 | 0.00 | 0.00 | 35 | 1019.4 |
| 20260906031550 | 23 | 0 | 0.0 | 0.0 | 0.00 | 0.00 | 0.00 | 34 | 1019.2 |
| 20260906031037 | 24 | 0 | 0.0 | 4.8 | 0.00 | 0.00 | 0.00 | 33 | 1018.9 |
| 20260906030534 | 24 | 0 | 0.0 | 4.8 | 0.00 | 0.00 | 0.00 | 33 | 1018.9 |
| 20260906030050 | 24 | 295 | 0.0 | 3.2 | 0.00 | 0.00 | 0.00 | 32 | 1018.6 |
| 20260906025534 | 25 | 0 | 0.0 | 3.2 | 0.00 | 0.00 | 0.00 | 32 | 1018.5 |
| 20260906025033 | 24 | 0 | 0.0 | 3.2 | 0.00 | 0.00 | 0.00 | 32 | 1018.5 |
| 20260906024612 | 24 | 0 | 0.0 | 3.2 | 0.00 | 0.00 | 0.00 | 32 | 1018.3 |
| 20260906024034 | 25 | 0 | 0.0 | 0.0 | 0.00 | 0.00 | 0.00 | 32 | 1018.2 |
| 20260906023533 | 25 | 0 | 0.0 | 1.6 | 0.00 | 0.00 | 0.00 | 33 | 1018.2 |
| 20260906023100 | 25 | 0 | 0.0 | 3.2 | 0.00 | 0.00 | 0.00 | 31 | 1018.3 |
| 20260906022536 | 26 | 0 | 0.0 | 3.2 | 0.00 | 0.00 | 0.00 | 31 | 1018.3 |
| 20260906022034 | 26 | 0 | 0.0 | 6.4 | 0.00 | 0.00 | 0.00 | 31 | 1018.3 |
| 20260906021549 | 26 | 0 | 0.0 | 6.4 | 0.00 | 0.00 | 0.00 | 29 | 1018.2 |
| 20260906021033 | 27 | 345 | 0.0 | 3.2 | 0.00 | 0.00 | 0.00 | 30 | 1018.1 |
| 20260906020534 | 27 | 0 | 0.0 | 3.2 | 0.00 | 0.00 | 0.00 | 29 | 1018.1 |
| 20260906020057 | 26 | 0 | 0.0 | 4.8 | 0.00 | 0.00 | 0.00 | 30 | 1018.1 |
| 20260906015536 | 26 | 0 | 0.0 | 4.8 | 0.00 | 0.00 | 0.00 | 29 | 1018.0 |
| 20260906015034 | 26 | 0 | 0.0 | 6.4 | 0.00 | 0.00 | 0.00 | 29 | 1018.0 |
| 20260906014553 | 26 | 0 | 0.0 | 6.4 | 0.00 | 0.00 | 0.00 | 30 | 1018.0 |
| 20260906014038 | 27 | 0 | 0.0 | 3.2 | 0.00 | 0.00 | 0.00 | 30 | 1017.9 |
| 20260906013537 | 27 | 0 | 0.0 | 4.8 | 0.00 | 0.00 | 0.00 | 30 | 1017.8 |
| 20260906013049 | 27 | 0 | 0.0 | 4.8 | 0.00 | 0.00 | 0.00 | 30 | 1017.7 |
| 20260906012537 | 27 | 315 | 0.0 | 4.8 | 0.00 | 0.00 | 0.00 | 28 | 1017.8 |
| 20260906012040 | 27 | 0 | 0.0 | 6.4 | 0.00 | 0.00 | 0.00 | 30 | 1018.0 |
| 20260906011549 | 27 | 0 | 0.0 | 6.4 | 0.00 | 0.00 | 0.00 | 28 | 1018.0 |
| 20260906011038 | 27 | 0 | 0.0 | 8.0 | 0.00 | 0.00 | 0.00 | 29 | 1018.0 |
| 20260906010538 | 28 | 0 | 0.0 | 8.0 | 0.00 | 0.00 | 0.00 | 28 | 1018.0 |
| 20260906010059 | 28 | 0 | 0.0 | 8.0 | 0.00 | 0.00 | 0.00 | 27 | 1018.0 |
| 20260906005537 | 28 | 0 | 0.0 | 8.0 | 0.00 | 0.00 | 0.00 | 27 | 1017.9 |
| 20260906005038 | 28 | 319 | 0.0 | 14.5 | 0.00 | 0.00 | 0.00 | 27 | 1018.1 |
| 20260906004553 | 28 | 0 | 0.0 | 14.5 | 0.00 | 0.00 | 0.00 | 26 | 1018.0 |
| 20260906004037 | 29 | 341 | 0.0 | 3.2 | 0.00 | 0.00 | 0.00 | 25 | 1018.0 |
| 20260906003537 | 29 | 331 | 1.6 | 4.8 | 0.00 | 0.00 | 0.00 | 24 | 1018.0 |
| 20260906003055 | 30 | 0 | 0.0 | 6.4 | 0.00 | 0.00 | 0.00 | 23 | 1018.0 |
| 20260906002541 | 30 | 0 | 1.6 | 6.4 | 0.00 | 0.00 | 0.00 | 23 | 1018.0 |
| 20260906002038 | 30 | 9 | 0.0 | 4.8 | 0.00 | 0.00 | 0.00 | 22 | 1018.0 |
| 20260906001551 | 30 | 11 | 1.6 | 4.8 | 0.00 | 0.00 | 0.00 | 22 | 1018.0 |
| 20260906001038 | 30 | 344 | 0.0 | 4.8 | 0.00 | 0.00 | 0.00 | 22 | 1018.0 |
| 20260906000538 | 31 | 352 | 1.6 | 4.8 | 0.00 | 0.00 | 0.00 | 22 | 1018.0 |
| 20260906000058 | 31 | 0 | 0.0 | 4.8 | 0.00 | 0.00 | 0.00 | 21 | 1018.1 |
| 20260905235540 | 31 | 10 | 0.0 | 4.8 | 0.00 | 0.00 | 0.00 | 21 | 1017.9 |
| 20260905235039 | 31 | 0 | 0.0 | 3.2 | 0.00 | 0.00 | 0.00 | 20 | 1018.0 |
| 20260905234554 | 32 | 352 | 0.0 | 3.2 | 0.00 | 0.00 | 0.00 | 20 | 1017.9 |
| 20260905234037 | 32 | 0 | 0.0 | 3.2 | 0.00 | 0.00 | 0.00 | 19 | 1018.0 |
| 20260905233538 | 32 | 0 | 0.0 | 4.8 | 0.00 | 0.00 | 0.00 | 20 | 1017.8 |
| 20260905233058 | 32 | 19 | 0.0 | 4.8 | 0.00 | 0.00 | 0.00 | 20 | 1017.9 |
| 20260905232537 | 32 | 0 | 0.0 | 0.0 | 0.00 | 0.00 | 0.00 | 20 | 1017.8 |
| 20260905232037 | 32 | 0 | 0.0 | 1.6 | 0.00 | 0.00 | 0.00 | 20 | 1017.8 |
| 20260905231550 | 32 | 0 | 0.0 | 1.6 | 0.00 | 0.00 | 0.00 | 20 | 1017.8 |
| 20260905231037 | 32 | 0 | 0.0 | 1.6 | 0.00 | 0.00 | 0.00 | 20 | 1017.7 |
| 20260905230537 | 32 | 0 | 0.0 | 1.6 | 0.00 | 0.00 | 0.00 | 20 | 1017.8 |
| 20260905230047 | 32 | 0 | 0.0 | 4.8 | 0.00 | 0.00 | 0.00 | 19 | 1017.8 |
| 20260905225538 | 32 | 0 | 0.0 | 4.8 | 0.00 | 0.00 | 0.00 | 20 | 1017.7 |